Year,Month,Day,Hour,Minute,Value (Times are PST for barometer in hPa)
2021,10,26,00,00,998.88
2021,10,26,00,01,998.88
2021,10,26,00,02,998.88
2021,10,26,00,03,998.88
2021,10,26,00,04,998.88
2021,10,26,00,05,998.88
2021,10,26,00,06,998.88
2021,10,26,00,07,998.88
2021,10,26,00,08,998.88
2021,10,26,00,09,998.88
2021,10,26,00,10,998.88
2021,10,26,00,11,998.88
2021,10,26,00,12,998.88
2021,10,26,00,13,998.88
2021,10,26,00,14,998.88
2021,10,26,00,15,998.92
2021,10,26,00,16,998.92
2021,10,26,00,17,998.92
2021,10,26,00,18,998.92
2021,10,26,00,19,998.92
2021,10,26,00,20,998.92
2021,10,26,00,21,998.92
2021,10,26,00,22,998.92
2021,10,26,00,23,998.92
2021,10,26,00,24,998.92
2021,10,26,00,25,998.92
2021,10,26,00,26,998.92
2021,10,26,00,27,998.92
2021,10,26,00,28,998.92
2021,10,26,00,29,998.92
2021,10,26,00,30,998.85
2021,10,26,00,31,998.85
2021,10,26,00,32,998.85
2021,10,26,00,33,998.85
2021,10,26,00,34,998.85
2021,10,26,00,35,998.85
2021,10,26,00,36,998.85
2021,10,26,00,37,998.85
2021,10,26,00,38,998.85
2021,10,26,00,39,998.85
2021,10,26,00,40,998.85
2021,10,26,00,41,998.85
2021,10,26,00,42,998.85
2021,10,26,00,43,998.85
2021,10,26,00,44,998.85
2021,10,26,00,45,998.85
2021,10,26,00,46,998.85
2021,10,26,00,47,998.85
2021,10,26,00,48,998.85
2021,10,26,00,49,998.85
2021,10,26,00,50,998.85
2021,10,26,00,51,998.85
2021,10,26,00,52,998.85
2021,10,26,00,53,998.85
2021,10,26,00,54,998.85
2021,10,26,00,55,998.85
2021,10,26,00,56,998.85
2021,10,26,00,57,998.85
2021,10,26,00,58,998.85
2021,10,26,00,59,998.85
2021,10,26,01,00,998.95
2021,10,26,01,01,998.95
2021,10,26,01,02,998.95
2021,10,26,01,03,998.95
2021,10,26,01,04,998.95
2021,10,26,01,05,998.95
2021,10,26,01,06,998.95
2021,10,26,01,07,998.95
2021,10,26,01,08,998.95
2021,10,26,01,09,998.95
2021,10,26,01,10,998.95
2021,10,26,01,11,998.95
2021,10,26,01,12,998.95
2021,10,26,01,13,998.95
2021,10,26,01,14,998.96
2021,10,26,01,15,999.12
2021,10,26,01,16,999.12
2021,10,26,01,17,999.12
2021,10,26,01,18,999.12
2021,10,26,01,19,999.12
2021,10,26,01,20,999.12
2021,10,26,01,21,999.12
2021,10,26,01,22,999.12
2021,10,26,01,23,999.12
2021,10,26,01,24,999.12
2021,10,26,01,25,999.12
2021,10,26,01,26,999.12
2021,10,26,01,27,999.12
2021,10,26,01,28,999.12
2021,10,26,01,29,999.13
2021,10,26,01,30,999.26
2021,10,26,01,31,999.26
2021,10,26,01,32,999.26
2021,10,26,01,33,999.26
2021,10,26,01,34,999.26
2021,10,26,01,35,999.26
2021,10,26,01,36,999.26
2021,10,26,01,37,999.26
2021,10,26,01,38,999.26
2021,10,26,01,39,999.26
2021,10,26,01,40,999.26
2021,10,26,01,41,999.26
2021,10,26,01,42,999.26
2021,10,26,01,43,999.26
2021,10,26,01,44,999.27
2021,10,26,01,45,999.36
2021,10,26,01,46,999.36
2021,10,26,01,47,999.36
2021,10,26,01,48,999.36
2021,10,26,01,49,999.36
2021,10,26,01,50,999.36
2021,10,26,01,51,999.36
2021,10,26,01,52,999.36
2021,10,26,01,53,999.36
2021,10,26,01,54,999.36
2021,10,26,01,55,999.36
2021,10,26,01,56,999.36
2021,10,26,01,57,999.36
2021,10,26,01,58,999.36
2021,10,26,01,59,999.38
2021,10,26,02,00,999.66
2021,10,26,02,01,999.66
2021,10,26,02,02,999.66
2021,10,26,02,03,999.66
2021,10,26,02,04,999.66
2021,10,26,02,05,999.66
2021,10,26,02,06,999.66
2021,10,26,02,07,999.66
2021,10,26,02,08,999.66
2021,10,26,02,09,999.66
2021,10,26,02,10,999.66
2021,10,26,02,11,999.66
2021,10,26,02,12,999.66
2021,10,26,02,13,999.66
2021,10,26,02,14,999.67
2021,10,26,02,15,999.93
2021,10,26,02,16,999.93
2021,10,26,02,17,999.93
2021,10,26,02,18,999.93
2021,10,26,02,19,999.93
2021,10,26,02,20,999.93
2021,10,26,02,21,999.93
2021,10,26,02,22,999.93
2021,10,26,02,23,999.93
2021,10,26,02,24,999.93
2021,10,26,02,25,999.93
2021,10,26,02,26,999.93
2021,10,26,02,27,999.93
2021,10,26,02,28,999.93
2021,10,26,02,29,999.93
2021,10,26,02,30,999.93
2021,10,26,02,31,999.93
2021,10,26,02,32,999.93
2021,10,26,02,33,999.93
2021,10,26,02,34,999.93
2021,10,26,02,35,999.93
2021,10,26,02,36,999.93
2021,10,26,02,37,999.93
2021,10,26,02,38,999.93
2021,10,26,02,39,999.93
2021,10,26,02,40,999.93
2021,10,26,02,41,999.93
2021,10,26,02,42,999.93
2021,10,26,02,43,999.93
2021,10,26,02,44,999.95
2021,10,26,02,45,1000.31
2021,10,26,02,46,1000.31
2021,10,26,02,47,1000.31
2021,10,26,02,48,1000.31
2021,10,26,02,49,1000.31
2021,10,26,02,50,1000.31
2021,10,26,02,51,1000.31
2021,10,26,02,52,1000.31
2021,10,26,02,53,1000.31
2021,10,26,02,54,1000.31
2021,10,26,02,55,1000.31
2021,10,26,02,56,1000.31
2021,10,26,02,57,1000.31
2021,10,26,02,58,1000.31
2021,10,26,02,59,1000.31
2021,10,26,03,00,1000.37
2021,10,26,03,01,1000.37
2021,10,26,03,02,1000.37
2021,10,26,03,03,1000.37
2021,10,26,03,04,1000.37
2021,10,26,03,05,1000.37
2021,10,26,03,06,1000.37
2021,10,26,03,07,1000.37
2021,10,26,03,08,1000.37
2021,10,26,03,09,1000.37
2021,10,26,03,10,1000.37
2021,10,26,03,11,1000.37
2021,10,26,03,12,1000.37
2021,10,26,03,13,1000.37
2021,10,26,03,14,1000.37
2021,10,26,03,15,1000.44
2021,10,26,03,16,1000.44
2021,10,26,03,17,1000.44
2021,10,26,03,18,1000.44
2021,10,26,03,19,1000.44
2021,10,26,03,20,1000.44
2021,10,26,03,21,1000.44
2021,10,26,03,22,1000.44
2021,10,26,03,23,1000.44
2021,10,26,03,24,1000.44
2021,10,26,03,25,1000.44
2021,10,26,03,26,1000.44
2021,10,26,03,27,1000.44
2021,10,26,03,28,1000.44
2021,10,26,03,29,1000.44
2021,10,26,03,30,1000.44
2021,10,26,03,31,1000.44
2021,10,26,03,32,1000.44
2021,10,26,03,33,1000.44
2021,10,26,03,34,1000.44
2021,10,26,03,35,1000.44
2021,10,26,03,36,1000.44
2021,10,26,03,37,1000.44
2021,10,26,03,38,1000.44
2021,10,26,03,39,1000.44
2021,10,26,03,40,1000.44
2021,10,26,03,41,1000.44
2021,10,26,03,42,1000.44
2021,10,26,03,43,1000.44
2021,10,26,03,44,1000.44
2021,10,26,03,45,1000.44
2021,10,26,03,46,1000.44
2021,10,26,03,47,1000.44
2021,10,26,03,48,1000.44
2021,10,26,03,49,1000.44
2021,10,26,03,50,1000.44
2021,10,26,03,51,1000.44
2021,10,26,03,52,1000.44
2021,10,26,03,53,1000.44
2021,10,26,03,54,1000.44
2021,10,26,03,55,1000.44
2021,10,26,03,56,1000.44
2021,10,26,03,57,1000.44
2021,10,26,03,58,1000.44
2021,10,26,03,59,1000.44
2021,10,26,04,00,1000.44
2021,10,26,04,01,1000.44
2021,10,26,04,02,1000.44
2021,10,26,04,03,1000.44
2021,10,26,04,04,1000.44
2021,10,26,04,05,1000.44
2021,10,26,04,06,1000.44
2021,10,26,04,07,1000.44
2021,10,26,04,08,1000.44
2021,10,26,04,09,1000.44
2021,10,26,04,10,1000.44
2021,10,26,04,11,1000.44
2021,10,26,04,12,1000.44
2021,10,26,04,13,1000.44
2021,10,26,04,14,1000.44
2021,10,26,04,15,1000.37
2021,10,26,04,16,1000.37
2021,10,26,04,17,1000.37
2021,10,26,04,18,1000.37
2021,10,26,04,19,1000.37
2021,10,26,04,20,1000.37
2021,10,26,04,21,1000.37
2021,10,26,04,22,1000.37
2021,10,26,04,23,1000.37
2021,10,26,04,24,1000.37
2021,10,26,04,25,1000.37
2021,10,26,04,26,1000.37
2021,10,26,04,27,1000.37
2021,10,26,04,28,1000.37
2021,10,26,04,29,1000.38
2021,10,26,04,30,1000.51
2021,10,26,04,31,1000.51
2021,10,26,04,32,1000.51
2021,10,26,04,33,1000.51
2021,10,26,04,34,1000.51
2021,10,26,04,35,1000.51
2021,10,26,04,36,1000.51
2021,10,26,04,37,1000.51
2021,10,26,04,38,1000.51
2021,10,26,04,39,1000.51
2021,10,26,04,40,1000.51
2021,10,26,04,41,1000.51
2021,10,26,04,42,1000.51
2021,10,26,04,43,1000.51
2021,10,26,04,44,1000.50
2021,10,26,04,45,1000.37
2021,10,26,04,46,1000.37
2021,10,26,04,47,1000.37
2021,10,26,04,48,1000.37
2021,10,26,04,49,1000.37
2021,10,26,04,50,1000.37
2021,10,26,04,51,1000.37
2021,10,26,04,52,1000.37
2021,10,26,04,53,1000.37
2021,10,26,04,54,1000.37
2021,10,26,04,55,1000.37
2021,10,26,04,56,1000.37
2021,10,26,04,57,1000.37
2021,10,26,04,58,1000.37
2021,10,26,04,59,1000.38
2021,10,26,05,00,1000.48
2021,10,26,05,01,1000.48
2021,10,26,05,02,1000.48
2021,10,26,05,03,1000.48
2021,10,26,05,04,1000.48
2021,10,26,05,05,1000.48
2021,10,26,05,06,1000.48
2021,10,26,05,07,1000.48
2021,10,26,05,08,1000.48
2021,10,26,05,09,1000.48
2021,10,26,05,10,1000.48
2021,10,26,05,11,1000.48
2021,10,26,05,12,1000.48
2021,10,26,05,13,1000.48
2021,10,26,05,14,1000.48
2021,10,26,05,15,1000.44
2021,10,26,05,16,1000.44
2021,10,26,05,17,1000.44
2021,10,26,05,18,1000.44
2021,10,26,05,19,1000.44
2021,10,26,05,20,1000.44
2021,10,26,05,21,1000.44
2021,10,26,05,22,1000.44
2021,10,26,05,23,1000.44
2021,10,26,05,24,1000.44
2021,10,26,05,25,1000.44
2021,10,26,05,26,1000.44
2021,10,26,05,27,1000.44
2021,10,26,05,28,1000.44
2021,10,26,05,29,1000.44
2021,10,26,05,30,1000.48
2021,10,26,05,31,1000.48
2021,10,26,05,32,1000.48
2021,10,26,05,33,1000.48
2021,10,26,05,34,1000.48
2021,10,26,05,35,1000.48
2021,10,26,05,36,1000.48
2021,10,26,05,37,1000.48
2021,10,26,05,38,1000.48
2021,10,26,05,39,1000.48
2021,10,26,05,40,1000.48
2021,10,26,05,41,1000.48
2021,10,26,05,42,1000.48
2021,10,26,05,43,1000.48
2021,10,26,05,44,1000.48
2021,10,26,05,45,1000.41
2021,10,26,05,46,1000.41
2021,10,26,05,47,1000.41
2021,10,26,05,48,1000.41
2021,10,26,05,49,1000.41
2021,10,26,05,50,1000.41
2021,10,26,05,51,1000.41
2021,10,26,05,52,1000.41
2021,10,26,05,53,1000.41
2021,10,26,05,54,1000.41
2021,10,26,05,55,1000.41
2021,10,26,05,56,1000.41
2021,10,26,05,57,1000.41
2021,10,26,05,58,1000.41
2021,10,26,05,59,1000.42
2021,10,26,06,00,1000.54
2021,10,26,06,01,1000.54
2021,10,26,06,02,1000.54
2021,10,26,06,03,1000.54
2021,10,26,06,04,1000.54
2021,10,26,06,05,1000.54
2021,10,26,06,06,1000.54
2021,10,26,06,07,1000.54
2021,10,26,06,08,1000.54
2021,10,26,06,09,1000.54
2021,10,26,06,10,1000.54
2021,10,26,06,11,1000.54
2021,10,26,06,12,1000.54
2021,10,26,06,13,1000.54
2021,10,26,06,14,1000.54
2021,10,26,06,15,1000.58
2021,10,26,06,16,1000.58
2021,10,26,06,17,1000.58
2021,10,26,06,18,1000.58
2021,10,26,06,19,1000.58
2021,10,26,06,20,1000.58
2021,10,26,06,21,1000.58
2021,10,26,06,22,1000.58
2021,10,26,06,23,1000.58
2021,10,26,06,24,1000.58
2021,10,26,06,25,1000.58
2021,10,26,06,26,1000.58
2021,10,26,06,27,1000.58
2021,10,26,06,28,1000.58
2021,10,26,06,29,1000.57
2021,10,26,06,30,1000.41
2021,10,26,06,31,1000.41
2021,10,26,06,32,1000.41
2021,10,26,06,33,1000.41
2021,10,26,06,34,1000.41
2021,10,26,06,35,1000.41
2021,10,26,06,36,1000.41
2021,10,26,06,37,1000.41
2021,10,26,06,38,1000.41
2021,10,26,06,39,1000.41
2021,10,26,06,40,1000.41
2021,10,26,06,41,1000.41
2021,10,26,06,42,1000.41
2021,10,26,06,43,1000.41
2021,10,26,06,44,1000.41
2021,10,26,06,45,1000.51
2021,10,26,06,46,1000.51
2021,10,26,06,47,1000.51
2021,10,26,06,48,1000.51
2021,10,26,06,49,1000.51
2021,10,26,06,50,1000.51
2021,10,26,06,51,1000.51
2021,10,26,06,52,1000.51
2021,10,26,06,53,1000.51
2021,10,26,06,54,1000.51
2021,10,26,06,55,1000.51
2021,10,26,06,56,1000.51
2021,10,26,06,57,1000.51
2021,10,26,06,58,1000.51
2021,10,26,06,59,1000.51
2021,10,26,07,00,1000.54
2021,10,26,07,01,1000.54
2021,10,26,07,02,1000.54
2021,10,26,07,03,1000.54
2021,10,26,07,04,1000.54
2021,10,26,07,05,1000.54
2021,10,26,07,06,1000.54
2021,10,26,07,07,1000.54
2021,10,26,07,08,1000.54
2021,10,26,07,09,1000.54
2021,10,26,07,10,1000.54
2021,10,26,07,11,1000.54
2021,10,26,07,12,1000.54
2021,10,26,07,13,1000.54
2021,10,26,07,14,1000.55
2021,10,26,07,15,1000.68
2021,10,26,07,16,1000.68
2021,10,26,07,17,1000.68
2021,10,26,07,18,1000.68
2021,10,26,07,19,1000.68
2021,10,26,07,20,1000.68
2021,10,26,07,21,1000.68
2021,10,26,07,22,1000.68
2021,10,26,07,23,1000.68
2021,10,26,07,24,1000.68
2021,10,26,07,25,1000.68
2021,10,26,07,26,1000.68
2021,10,26,07,27,1000.68
2021,10,26,07,28,1000.68
2021,10,26,07,29,1000.68
2021,10,26,07,30,1000.41
2021,10,26,07,31,1000.41
2021,10,26,07,32,1000.41
2021,10,26,07,33,1000.41
2021,10,26,07,34,1000.41
2021,10,26,07,35,1000.41
2021,10,26,07,36,1000.41
2021,10,26,07,37,1000.41
2021,10,26,07,38,1000.41
2021,10,26,07,39,1000.41
2021,10,26,07,40,1000.41
2021,10,26,07,41,1000.41
2021,10,26,07,42,1000.41
2021,10,26,07,43,1000.41
2021,10,26,07,44,1000.41
2021,10,26,07,45,1000.44
2021,10,26,07,46,1000.44
2021,10,26,07,47,1000.44
2021,10,26,07,48,1000.44
2021,10,26,07,49,1000.44
2021,10,26,07,50,1000.44
2021,10,26,07,51,1000.44
2021,10,26,07,52,1000.44
2021,10,26,07,53,1000.44
2021,10,26,07,54,1000.44
2021,10,26,07,55,1000.44
2021,10,26,07,56,1000.44
2021,10,26,07,57,1000.44
2021,10,26,07,58,1000.44
2021,10,26,07,59,1000.44
2021,10,26,08,00,1000.37
2021,10,26,08,01,1000.37
2021,10,26,08,02,1000.37
2021,10,26,08,03,1000.37
2021,10,26,08,04,1000.37
2021,10,26,08,05,1000.37
2021,10,26,08,06,1000.37
2021,10,26,08,07,1000.37
2021,10,26,08,08,1000.37
2021,10,26,08,09,1000.37
2021,10,26,08,10,1000.37
2021,10,26,08,11,1000.37
2021,10,26,08,12,1000.37
2021,10,26,08,13,1000.37
2021,10,26,08,14,1000.37
2021,10,26,08,15,1000.17
2021,10,26,08,16,1000.17
2021,10,26,08,17,1000.17
2021,10,26,08,18,1000.17
2021,10,26,08,19,1000.17
2021,10,26,08,20,1000.17
2021,10,26,08,21,1000.17
2021,10,26,08,22,1000.17
2021,10,26,08,23,1000.17
2021,10,26,08,24,1000.17
2021,10,26,08,25,1000.17
2021,10,26,08,26,1000.17
2021,10,26,08,27,1000.17
2021,10,26,08,28,1000.17
2021,10,26,08,29,1000.17
2021,10,26,08,30,999.90
2021,10,26,08,31,999.90
2021,10,26,08,32,999.90
2021,10,26,08,33,999.90
2021,10,26,08,34,999.90
2021,10,26,08,35,999.90
2021,10,26,08,36,999.90
2021,10,26,08,37,999.90
2021,10,26,08,38,999.90
2021,10,26,08,39,999.90
2021,10,26,08,40,999.90
2021,10,26,08,41,999.90
2021,10,26,08,42,999.90
2021,10,26,08,43,999.90
2021,10,26,08,44,999.90
2021,10,26,08,45,999.97
2021,10,26,08,46,999.97
2021,10,26,08,47,999.97
2021,10,26,08,48,999.97
2021,10,26,08,49,999.97
2021,10,26,08,50,999.97
2021,10,26,08,51,999.97
2021,10,26,08,52,999.97
2021,10,26,08,53,999.97
2021,10,26,08,54,999.97
2021,10,26,08,55,999.97
2021,10,26,08,56,999.97
2021,10,26,08,57,999.97
2021,10,26,08,58,999.97
2021,10,26,08,59,999.97
2021,10,26,09,00,999.90
2021,10,26,09,01,999.90
2021,10,26,09,02,999.90
2021,10,26,09,03,999.90
2021,10,26,09,04,999.90
2021,10,26,09,05,999.90
2021,10,26,09,06,999.90
2021,10,26,09,07,999.90
2021,10,26,09,08,999.90
2021,10,26,09,09,999.90
2021,10,26,09,10,999.90
2021,10,26,09,11,999.90
2021,10,26,09,12,999.90
2021,10,26,09,13,999.90
2021,10,26,09,14,999.90
2021,10,26,09,15,999.87
2021,10,26,09,16,999.87
2021,10,26,09,17,999.87
2021,10,26,09,18,999.87
2021,10,26,09,19,999.87
2021,10,26,09,20,999.87
2021,10,26,09,21,999.87
2021,10,26,09,22,999.87
2021,10,26,09,23,999.87
2021,10,26,09,24,999.87
2021,10,26,09,25,999.87
2021,10,26,09,26,999.87
2021,10,26,09,27,999.87
2021,10,26,09,28,999.87
2021,10,26,09,29,999.87
2021,10,26,09,30,999.63
2021,10,26,09,31,999.63
2021,10,26,09,32,999.63
2021,10,26,09,33,999.63
2021,10,26,09,34,999.63
2021,10,26,09,35,999.63
2021,10,26,09,36,999.63
2021,10,26,09,37,999.63
2021,10,26,09,38,999.63
2021,10,26,09,39,999.63
2021,10,26,09,40,999.63
2021,10,26,09,41,999.63
2021,10,26,09,42,999.63
2021,10,26,09,43,999.63
2021,10,26,09,44,999.62
2021,10,26,09,45,999.43
2021,10,26,09,46,999.43
2021,10,26,09,47,999.43
2021,10,26,09,48,999.43
2021,10,26,09,49,999.43
2021,10,26,09,50,999.43
2021,10,26,09,51,999.43
2021,10,26,09,52,999.43
2021,10,26,09,53,999.43
2021,10,26,09,54,999.43
2021,10,26,09,55,999.43
2021,10,26,09,56,999.43
2021,10,26,09,57,999.43
2021,10,26,09,58,999.43
2021,10,26,09,59,999.43
2021,10,26,10,00,999.26
2021,10,26,10,01,999.26
2021,10,26,10,02,999.26
2021,10,26,10,03,999.26
2021,10,26,10,04,999.26
2021,10,26,10,05,999.26
2021,10,26,10,06,999.26
2021,10,26,10,07,999.26
2021,10,26,10,08,999.26
2021,10,26,10,09,999.26
2021,10,26,10,10,999.26
2021,10,26,10,11,999.26
2021,10,26,10,12,999.26
2021,10,26,10,13,999.26
2021,10,26,10,14,999.26
2021,10,26,10,15,999.12
2021,10,26,10,16,999.12
2021,10,26,10,17,999.12
2021,10,26,10,18,999.12
2021,10,26,10,19,999.12
2021,10,26,10,20,999.12
2021,10,26,10,21,999.12
2021,10,26,10,22,999.12
2021,10,26,10,23,999.12
2021,10,26,10,24,999.12
2021,10,26,10,25,999.12
2021,10,26,10,26,999.12
2021,10,26,10,27,999.12
2021,10,26,10,28,999.12
2021,10,26,10,29,999.12
2021,10,26,10,30,999.15
2021,10,26,10,31,999.15
2021,10,26,10,32,999.15
2021,10,26,10,33,999.15
2021,10,26,10,34,999.15
2021,10,26,10,35,999.15
2021,10,26,10,36,999.15
2021,10,26,10,37,999.15
2021,10,26,10,38,999.15
2021,10,26,10,39,999.15
2021,10,26,10,40,999.15
2021,10,26,10,41,999.15
2021,10,26,10,42,999.15
2021,10,26,10,43,999.15
2021,10,26,10,44,999.15
2021,10,26,10,45,998.82
2021,10,26,10,46,998.82
2021,10,26,10,47,998.82
2021,10,26,10,48,998.82
2021,10,26,10,49,998.82
2021,10,26,10,50,998.82
2021,10,26,10,51,998.82
2021,10,26,10,52,998.82
2021,10,26,10,53,998.82
2021,10,26,10,54,998.82
2021,10,26,10,55,998.82
2021,10,26,10,56,998.82
2021,10,26,10,57,998.82
2021,10,26,10,58,998.82
2021,10,26,10,59,998.82
2021,10,26,11,00,998.88
2021,10,26,11,01,998.88
2021,10,26,11,02,998.88
2021,10,26,11,03,998.88
2021,10,26,11,04,998.88
2021,10,26,11,05,998.88
2021,10,26,11,06,998.88
2021,10,26,11,07,998.88
2021,10,26,11,08,998.88
2021,10,26,11,09,998.88
2021,10,26,11,10,998.88
2021,10,26,11,11,998.88
2021,10,26,11,12,998.88
2021,10,26,11,13,998.88
2021,10,26,11,14,998.88
2021,10,26,11,15,998.85
2021,10,26,11,16,998.85
2021,10,26,11,17,998.85
2021,10,26,11,18,998.85
2021,10,26,11,19,998.85
2021,10,26,11,20,998.85
2021,10,26,11,21,998.85
2021,10,26,11,22,998.85
2021,10,26,11,23,998.85
2021,10,26,11,24,998.85
2021,10,26,11,25,998.85
2021,10,26,11,26,998.85
2021,10,26,11,27,998.85
2021,10,26,11,28,998.85
2021,10,26,11,29,998.85
2021,10,26,11,30,998.78
2021,10,26,11,31,998.78
2021,10,26,11,32,998.78
2021,10,26,11,33,998.78
2021,10,26,11,34,998.78
2021,10,26,11,35,998.78
2021,10,26,11,36,998.78
2021,10,26,11,37,998.78
2021,10,26,11,38,998.78
2021,10,26,11,39,998.78
2021,10,26,11,40,998.78
2021,10,26,11,41,998.78
2021,10,26,11,42,998.78
2021,10,26,11,43,998.78
2021,10,26,11,44,998.78
2021,10,26,11,45,998.75
2021,10,26,11,46,998.75
2021,10,26,11,47,998.75
2021,10,26,11,48,998.75
2021,10,26,11,49,998.75
2021,10,26,11,50,998.75
2021,10,26,11,51,998.75
2021,10,26,11,52,998.75
2021,10,26,11,53,998.75
2021,10,26,11,54,998.75
2021,10,26,11,55,998.75
2021,10,26,11,56,998.75
2021,10,26,11,57,998.75
2021,10,26,11,58,998.75
2021,10,26,11,59,998.75
2021,10,26,12,00,998.34
2021,10,26,12,01,998.34
2021,10,26,12,02,998.34
2021,10,26,12,03,998.34
2021,10,26,12,04,998.34
2021,10,26,12,05,998.34
2021,10,26,12,06,998.34
2021,10,26,12,07,998.34
2021,10,26,12,08,998.34
2021,10,26,12,09,998.34
2021,10,26,12,10,998.34
2021,10,26,12,11,998.34
2021,10,26,12,12,998.34
2021,10,26,12,13,998.34
2021,10,26,12,14,998.34
2021,10,26,12,15,998.17
2021,10,26,12,16,998.17
2021,10,26,12,17,998.17
2021,10,26,12,18,998.17
2021,10,26,12,19,998.17
2021,10,26,12,20,998.17
2021,10,26,12,21,998.17
2021,10,26,12,22,998.17
2021,10,26,12,23,998.17
2021,10,26,12,24,998.17
2021,10,26,12,25,998.17
2021,10,26,12,26,998.17
2021,10,26,12,27,998.17
2021,10,26,12,28,998.17
2021,10,26,12,29,998.17
2021,10,26,12,30,997.77
2021,10,26,12,31,997.77
2021,10,26,12,32,997.77
2021,10,26,12,33,997.77
2021,10,26,12,34,997.77
2021,10,26,12,35,997.77
2021,10,26,12,36,997.77
2021,10,26,12,37,997.77
2021,10,26,12,38,997.77
2021,10,26,12,39,997.77
2021,10,26,12,40,997.77
2021,10,26,12,41,997.77
2021,10,26,12,42,997.77
2021,10,26,12,43,997.77
2021,10,26,12,44,997.77
2021,10,26,12,45,997.73
2021,10,26,12,46,997.73
2021,10,26,12,47,997.73
2021,10,26,12,48,997.73
2021,10,26,12,49,997.73
2021,10,26,12,50,997.73
2021,10,26,12,51,997.73
2021,10,26,12,52,997.73
2021,10,26,12,53,997.73
2021,10,26,12,54,997.73
2021,10,26,12,55,997.73
2021,10,26,12,56,997.73
2021,10,26,12,57,997.73
2021,10,26,12,58,997.73
2021,10,26,12,59,997.72
2021,10,26,13,00,997.56
2021,10,26,13,01,997.56
2021,10,26,13,02,997.56
2021,10,26,13,03,997.56
2021,10,26,13,04,997.56
2021,10,26,13,05,997.56
2021,10,26,13,06,997.56
2021,10,26,13,07,997.56
2021,10,26,13,08,997.56
2021,10,26,13,09,997.56
2021,10,26,13,10,997.56
2021,10,26,13,11,997.56
2021,10,26,13,12,997.56
2021,10,26,13,13,997.56
2021,10,26,13,14,997.56
2021,10,26,13,15,997.19
2021,10,26,13,16,997.19
2021,10,26,13,17,997.19
2021,10,26,13,18,997.19
2021,10,26,13,19,997.19
2021,10,26,13,20,997.19
2021,10,26,13,21,997.19
2021,10,26,13,22,997.19
2021,10,26,13,23,997.19
2021,10,26,13,24,997.19
2021,10,26,13,25,997.19
2021,10,26,13,26,997.19
2021,10,26,13,27,997.19
2021,10,26,13,28,997.19
2021,10,26,13,29,997.19
2021,10,26,13,30,997.33
2021,10,26,13,31,997.33
2021,10,26,13,32,997.33
2021,10,26,13,33,997.33
2021,10,26,13,34,997.33
2021,10,26,13,35,997.33
2021,10,26,13,36,997.33
2021,10,26,13,37,997.33
2021,10,26,13,38,997.33
2021,10,26,13,39,997.33
2021,10,26,13,40,997.33
2021,10,26,13,41,997.33
2021,10,26,13,42,997.33
2021,10,26,13,43,997.33
2021,10,26,13,44,997.34
2021,10,26,13,45,997.56
2021,10,26,13,46,997.56
2021,10,26,13,47,997.56
2021,10,26,13,48,997.56
2021,10,26,13,49,997.56
2021,10,26,13,50,997.56
2021,10,26,13,51,997.56
2021,10,26,13,52,997.56
2021,10,26,13,53,997.56
2021,10,26,13,54,997.56
2021,10,26,13,55,997.56
2021,10,26,13,56,997.56
2021,10,26,13,57,997.56
2021,10,26,13,58,997.56
2021,10,26,13,59,997.56
2021,10,26,14,00,998.21
2021,10,26,14,01,998.21
2021,10,26,14,02,998.21
2021,10,26,14,03,998.21
2021,10,26,14,04,998.21
2021,10,26,14,05,998.21
2021,10,26,14,06,998.21
2021,10,26,14,07,998.21
2021,10,26,14,08,998.21
2021,10,26,14,09,998.21
2021,10,26,14,10,998.21
2021,10,26,14,11,998.21
2021,10,26,14,12,998.21
2021,10,26,14,13,998.21
2021,10,26,14,14,998.21
2021,10,26,14,15,998.00
2021,10,26,14,16,998.00
2021,10,26,14,17,998.00
2021,10,26,14,18,998.00
2021,10,26,14,19,998.00
2021,10,26,14,20,998.00
2021,10,26,14,21,998.00
2021,10,26,14,22,998.00
2021,10,26,14,23,998.00
2021,10,26,14,24,998.00
2021,10,26,14,25,998.00
2021,10,26,14,26,998.00
2021,10,26,14,27,998.00
2021,10,26,14,28,998.00
2021,10,26,14,29,998.00
2021,10,26,14,30,997.73
2021,10,26,14,31,997.73
2021,10,26,14,32,997.73
2021,10,26,14,33,997.73
2021,10,26,14,34,997.73
2021,10,26,14,35,997.73
2021,10,26,14,36,997.73
2021,10,26,14,37,997.73
2021,10,26,14,38,997.73
2021,10,26,14,39,997.73
2021,10,26,14,40,997.73
2021,10,26,14,41,997.73
2021,10,26,14,42,997.73
2021,10,26,14,43,997.73
2021,10,26,14,44,997.73
2021,10,26,14,45,998.00
2021,10,26,14,46,998.00
2021,10,26,14,47,998.00
2021,10,26,14,48,998.00
2021,10,26,14,49,998.00
2021,10,26,14,50,998.00
2021,10,26,14,51,998.00
2021,10,26,14,52,998.00
2021,10,26,14,53,998.00
2021,10,26,14,54,998.00
2021,10,26,14,55,998.00
2021,10,26,14,56,998.00
2021,10,26,14,57,998.00
2021,10,26,14,58,998.00
2021,10,26,14,59,998.00
2021,10,26,15,00,998.04
2021,10,26,15,01,998.04
2021,10,26,15,02,998.04
2021,10,26,15,03,998.04
2021,10,26,15,04,998.04
2021,10,26,15,05,998.04
2021,10,26,15,06,998.04
2021,10,26,15,07,998.04
2021,10,26,15,08,998.04
2021,10,26,15,09,998.04
2021,10,26,15,10,998.04
2021,10,26,15,11,998.04
2021,10,26,15,12,998.04
2021,10,26,15,13,998.04
2021,10,26,15,14,998.05
2021,10,26,15,15,998.24
2021,10,26,15,16,998.24
2021,10,26,15,17,998.24
2021,10,26,15,18,998.24
2021,10,26,15,19,998.24
2021,10,26,15,20,998.24
2021,10,26,15,21,998.24
2021,10,26,15,22,998.24
2021,10,26,15,23,998.24
2021,10,26,15,24,998.24
2021,10,26,15,25,998.24
2021,10,26,15,26,998.24
2021,10,26,15,27,998.24
2021,10,26,15,28,998.24
2021,10,26,15,29,998.24
2021,10,26,15,30,998.34
2021,10,26,15,31,998.34
2021,10,26,15,32,998.34
2021,10,26,15,33,998.34
2021,10,26,15,34,998.34
2021,10,26,15,35,998.34
2021,10,26,15,36,998.34
2021,10,26,15,37,998.34
2021,10,26,15,38,998.34
2021,10,26,15,39,998.34
2021,10,26,15,40,998.34
2021,10,26,15,41,998.34
2021,10,26,15,42,998.34
2021,10,26,15,43,998.34
2021,10,26,15,44,998.34
2021,10,26,15,45,998.34
2021,10,26,15,46,998.34
2021,10,26,15,47,998.34
2021,10,26,15,48,998.34
2021,10,26,15,49,998.34
2021,10,26,15,50,998.34
2021,10,26,15,51,998.34
2021,10,26,15,52,998.34
2021,10,26,15,53,998.34
2021,10,26,15,54,998.34
2021,10,26,15,55,998.34
2021,10,26,15,56,998.34
2021,10,26,15,57,998.34
2021,10,26,15,58,998.34
2021,10,26,15,59,998.32
2021,10,26,16,00,997.87
2021,10,26,16,01,997.87
2021,10,26,16,02,997.87
2021,10,26,16,03,997.87
2021,10,26,16,04,997.87
2021,10,26,16,05,997.87
2021,10,26,16,06,997.87
2021,10,26,16,07,997.87
2021,10,26,16,08,997.87
2021,10,26,16,09,997.87
2021,10,26,16,10,997.87
2021,10,26,16,11,997.87
2021,10,26,16,12,997.87
2021,10,26,16,13,997.87
2021,10,26,16,14,997.87
2021,10,26,16,15,997.87
2021,10,26,16,16,997.87
2021,10,26,16,17,997.87
2021,10,26,16,18,997.87
2021,10,26,16,19,997.87
2021,10,26,16,20,997.87
2021,10,26,16,21,997.87